Location: Gettysburg
(39.8310°N, 77.2310°W)
Time: 11:20:39
(UTC-04:00)

ATLAS 2AS CENTAUR R/B - Visible Passes

Search period start: 24 July 2014 00:00
Search period end: 03 August 2014 00:00
Orbit: 918 x 1294 km, 63.7° (Epoch: 15 July)

Date Brightness Start Highest point End Pass type
(mag) Time Alt. Az. Time Alt. Az. Time Alt. Az.
24 Jul 5.8 00:00:00 13° NW 00:02:14 14° NNW 00:06:16 10° NNE visible
24 Jul 6.0 01:54:09 10° NNW 01:57:14 12° N 02:00:20 10° NE visible
24 Jul 5.1 03:44:39 10° NNW 03:51:23 28° NE 03:58:02 10° E visible
24 Jul 3.8 21:16:38 10° SW 21:23:37 55° NW 21:31:15 10° NNE visible
24 Jul 5.6 23:11:39 10° WNW 23:16:33 18° NNW 23:21:39 10° NNE visible
25 Jul 6.0 01:08:56 10° NNW 01:11:20 11° N 01:13:45 10° NNE visible
25 Jul 5.5 03:00:06 10° NNW 03:05:57 21° NNE 03:11:45 10° ENE visible
25 Jul 3.6 04:50:30 10° NNW 04:58:35 67° NE 05:06:23 10° SE visible
25 Jul 5.3 22:25:17 10° W 22:31:01 23° NNW 22:37:04 10° NNE visible
26 Jul 6.0 00:22:53 10° NNW 00:25:25 12° N 00:27:59 10° NNE visible
26 Jul 5.7 02:15:32 10° NNW 02:20:20 17° NNE 02:25:08 10° ENE visible
26 Jul 4.2 04:05:50 10° NNW 04:13:35 47° NE 04:21:07 10° ESE visible
26 Jul 4.9 21:39:16 10° W 21:45:39 32° NW 21:52:30 10° NNE visible
26 Jul 5.9 23:36:12 10° NW 23:39:32 13° NNW 23:42:57 10° NNE visible
27 Jul 5.8 01:30:52 10° NNW 01:34:34 14° NNE 01:38:18 10° NE visible
27 Jul 4.7 03:21:14 10° NNW 03:28:25 34° NE 03:35:27 10° ESE visible
27 Jul 3.1 05:12:02 10° NW 05:20:03 69° WSW 05:27:46 10° SSE visible
27 Jul 4.3 20:53:39 10° WSW 21:00:28 44° NW 21:07:53 10° NNE visible
27 Jul 5.7 22:49:26 10° WNW 22:53:46 16° NNW 22:58:15 10° NNE visible
28 Jul 5.9 00:45:58 10° NNW 00:48:43 12° N 00:51:28 10° NNE visible
28 Jul 5.1 02:36:40 10° NNW 02:43:04 25° NE 02:49:24 10° E visible
28 Jul 3.2 04:27:11 10° NNW 04:35:20 83° ENE 04:43:10 10° SE visible
28 Jul 5.6 22:02:53 10° WNW 22:08:08 20° NNW 22:13:39 10° NNE visible
29 Jul 5.9 00:00:27 10° NNW 00:02:47 11° N 00:05:09 10° NNE visible
29 Jul 5.4 01:52:07 10° NNW 01:57:33 19° NNE 02:02:58 10° ENE visible
29 Jul 3.7 03:42:28 10° NNW 03:50:26 58° NE 03:58:09 10° SE visible
29 Jul 5.2 21:16:39 10° W 21:22:40 26° NW 21:29:05 10° NNE visible
29 Jul 5.8 23:14:04 10° NNW 23:16:53 12° N 23:19:44 10° NNE visible
30 Jul 5.6 01:07:31 10° NNW 01:11:52 15° NNE 01:16:15 10° NE visible
30 Jul 4.3 02:57:49 10° NNW 03:05:22 41° NE 03:12:44 10° ESE visible
30 Jul 3.2 04:48:52 10° NW 04:56:39 54° WSW 05:04:08 10° S visible
30 Jul 5.7 22:27:18 10° NW 22:31:02 14° NNW 22:34:52 10° NNE visible
31 Jul 5.7 00:22:47 10° NNW 00:26:04 13° NNE 00:29:22 10° NE visible
31 Jul 4.8 02:13:14 10° NNW 02:20:07 30° NE 02:26:54 10° E visible
31 Jul 3.0 04:03:54 10° NW 04:12:01 80° WSW 04:19:48 10° SSE visible
31 Jul 5.6 21:40:36 10° WNW 21:45:19 17° NNW 21:50:13 10° NNE visible
31 Jul 5.7 23:37:41 10° NNW 23:40:10 12° N 23:42:40 10° NNE visible
01 Aug 5.1 01:28:40 10° NNW 01:34:42 22° NNE 01:40:41 10° E visible
01 Aug 3.3 03:19:06 10° NNW 03:27:13 72° NE 03:35:02 10° SE visible
01 Aug 3.9 05:11:14 10° NW 05:17:33 26° WSW 05:23:41 10° SSW visible
01 Aug 5.4 20:54:09 10° W 20:59:45 22° NNW 21:05:38 10° NNE visible
01 Aug 5.7 22:51:47 10° NNW 22:54:14 12° N 22:56:43 10° NNE visible
02 Aug 5.4 00:44:06 10° NNW 00:49:07 17° NNE 00:54:07 10° ENE visible
02 Aug 3.8 02:34:25 10° NNW 02:42:14 50° NE 02:49:51 10° ESE visible
02 Aug 3.4 04:25:46 10° NW 04:33:10 41° WSW 04:40:18 10° S visible
02 Aug 5.6 22:05:11 10° NW 22:08:21 13° NNW 22:11:34 10° NNE visible
02 Aug 6.0 23:59:28 10° NNW 00:00:00 11° N 00:00:00 11° N visible
